Location: Jetmore Motorplex
(37.9889°N, 99.8876°W)
Time: 09:45:58
(UTC+00:00)

Cosmos 1354 Rocket - Pass Details

Date: 17 February 2020
Orbit: 765 x 782 km, 74.0° (Epoch: 08 April)

Event Time Altitude Azimuth Distance (km) Brightness Sun altitude
Rises 01:56:29 0° 338° (NNW) 3,267 7.6 -19.8°
Reaches altitude 10° 01:58:54 10° 335° (NNW) 2,333 6.8 -20.3°
Maximum altitude 02:04:08 63° 255° (WSW) 863 4.4 -21.3°
Drops below altitude 10° 02:09:18 10° 175° (S) 2,306 6.4 -22.3°
Sets 02:11:40 0° 172° (S) 3,226 7.1 -22.8°
